Location: Newark
(46.7000°N, 60.6000°W)
Time: 20:52:35
(UTC+00:00)

Vanguard 1 Rocket - Pass Details

Date: 06 November 2020
Orbit: 656 x 4221 km, 34.3° (Epoch: 30 November)

Event Time Altitude Azimuth Distance (km) Brightness Sun altitude
Rises 15:46:35 0° 256° (WSW) 3,366 10.5 27.1°
Reaches altitude 10° 15:50:37 10° 227° (SW) 2,150 10.1 27.0°
Maximum altitude 15:52:37 13° 200° (SSW) 1,906 10.6 27.0°
Drops below altitude 10° 15:54:33 10° 174° (S) 2,052 11.0 27.0°
Sets 15:58:11 0° 143° (SE) 3,054 10.8 27.0°
